Jendouba, Tunisia

9:18 AM CET on October 21, 2019 (GMT +0100)
Jendouba

Weather History for DTTN - August, 2019

Change the Weather History Date:

Friday, August 30, 2019

  Actual Average (WUND) Record (WUND)
Temperature  
Mean Temperature 80 °F -  
Max Temperature 89 °F 89 °F - (-1)
Min Temperature 71 °F 62 °F - (-1)
Cooling Degree Days 15    
Growing Degree Days 30 (Base 50)    
Moisture  
Dew Point 67 °F    
Average Humidity 66    
Maximum Humidity 88    
Minimum Humidity 42    
Precipitation  
Precipitation 0.01 in 0.04 in - ()
Sea Level Pressure  
Sea Level Pressure 30.05 in    
Wind  
Wind Speed 4 mph ()    
Max Wind Speed 10 mph    
Max Gust Speed -    
Visibility 6.2 miles    
Events      
Averages and records for this station are not official NWS values.
T = Trace of Precipitation, MM = Missing Value Source: Averaged Metar Reports

Daily Weather History Graph

Daily Weather History Graph

Search for Another Location

Airport or City:

Astronomy

Aug. 30, 2019 Rise Set
Actual Time 5:54 AM CET 6:56 PM CET
Civil Twilight 5:27 AM CET 7:22 PM CET
Nautical Twilight 4:56 AM CET 7:54 PM CET
Astronomical Twilight 4:23 AM CET 8:26 PM CET
Moon 5:36 AM CET (8/30) 7:21 PM CET (8/30)
Length of Visible Light 13h 55m
Length of Day
13h 02m
New Moon, 0% of the Moon is Illuminated
Aug 30
New Moon
Sep 6
First Quarter
Sep 14
Full
Sep 22
Last Quarter
Sep 28
New

Hourly Weather History & Observations

Time (CET) Temp. Heat Index Dew Point Humidity Pressure Visibility Wind Dir Wind Speed Gust Speed Precip Events Conditions
12:00 AM 75.2 °F - 68.0 °F 78% 30.04 in 5.0 mi South 2.3 mph - N/A   Scattered Clouds
1:00 AM 76 °F - 67 °F 66% 30.08 in 5 mi NW 2.3 mph - -   Partly Cloudy
1:00 AM 77.0 °F - 66.2 °F 69% 30.06 in 5.0 mi NW 2.3 mph - N/A   Scattered Clouds
2:00 AM 71.6 °F - 66.2 °F 83% 30.06 in 5.0 mi SSW 4.6 mph - N/A   Scattered Clouds
3:00 AM 75.2 °F - 66.2 °F 73% 30.04 in 5.0 mi WSW 6.9 mph - N/A   Scattered Clouds
4:00 AM 71.6 °F - 66.2 °F 83% 30.04 in 5.0 mi SSW 6.9 mph - N/A   Scattered Clouds
5:00 AM 71.6 °F - 66.2 °F 83% 30.04 in 6.2 mi SW 4.6 mph - N/A   Scattered Clouds
6:00 AM 73.4 °F - 68.0 °F 83% 30.09 in 6.2 mi ESE 3.5 mph - N/A   Scattered Clouds
7:00 AM 71.6 °F - 68.0 °F 88% 30.06 in 6.2 mi SSE 4.6 mph - N/A   Scattered Clouds
8:00 AM 73.4 °F - 68.0 °F 83% 30.06 in 6.2 mi SW 6.9 mph - N/A   Scattered Clouds
9:00 AM 77.0 °F - 68.0 °F 74% 30.09 in 6.2 mi WSW 3.5 mph - N/A   Scattered Clouds
10:00 AM 79 °F - 66 °F 57% 30.09 in 9 mi Calm Calm - -   Mostly Cloudy
10:00 AM 78.8 °F - 66.2 °F 65% 30.09 in 6.2 mi Calm Calm - N/A   Scattered Clouds
11:00 AM 82.4 °F 84.6 °F 66.2 °F 58% 30.09 in 6.2 mi WNW 2.3 mph - N/A   Scattered Clouds
12:00 PM 82.4 °F 85.4 °F 68.0 °F 62% 30.09 in 6.2 mi WNW 5.8 mph - N/A   Scattered Clouds
1:00 PM 87 °F - 67 °F 42% 30.05 in 9 mi West 3.5 mph - -   Mostly Cloudy
1:00 PM 87.8 °F 91.4 °F 68.0 °F 52% 30.06 in 6.2 mi West 3.5 mph - N/A   Scattered Clouds
2:00 PM 87.8 °F 90.4 °F 66.2 °F 49% 30.04 in 6.2 mi WNW 5.8 mph - N/A   Scattered Clouds
3:00 PM 87.8 °F 90.4 °F 66.2 °F 49% 30.04 in 6.2 mi NW 6.9 mph - N/A   Scattered Clouds
4:00 PM 86 °F - 67 °F 44% 30.00 in 9 mi North 10.4 mph - -   Mostly Cloudy
4:00 PM 86.0 °F 88.2 °F 66.2 °F 51% 30.01 in 6.2 mi North 10.4 mph - N/A   Scattered Clouds
5:00 PM 86.0 °F 88.2 °F 66.2 °F 51% 30.01 in 6.2 mi NNW 6.9 mph - N/A   Scattered Clouds
6:00 PM 84.2 °F 86.6 °F 66.2 °F 55% 30.01 in 6.2 mi NNW 10.4 mph - N/A   Scattered Clouds
7:00 PM 82 °F - 67 °F 52% 30.01 in 9 mi NNW 9.2 mph - -   Mostly Cloudy
7:00 PM 82.4 °F 85.4 °F 68.0 °F 62% 30.04 in 6.2 mi NNW 9.2 mph - N/A   Scattered Clouds
8:00 PM 80.6 °F 83.2 °F 68.0 °F 65% 30.04 in 6.2 mi NNW 8.1 mph - N/A   Scattered Clouds
9:00 PM 78.8 °F - 68.0 °F 69% 30.06 in 5.0 mi East 3.5 mph - N/A   Scattered Clouds
10:00 PM 76 °F - 68 °F 70% 30.05 in 5 mi NNE 2.3 mph - -   Mostly Cloudy
10:00 PM 77.0 °F - 68.0 °F 74% 30.06 in 5.0 mi Variable 2.3 mph - N/A   Scattered Clouds
11:00 PM 75.2 °F - 68.0 °F 78% 30.06 in 5.0 mi Variable 2.3 mph - N/A   Scattered Clouds